Location: Recife
(8.0585°S, 34.8848°W)
Time: 10:33:20
(UTC-03:00)

Courier 1B Rocket - Pass Details

Date: 19 April 2026
Orbit: 920 x 1201 km, 28.2° (Epoch: 13 May)

Event Time Altitude Azimuth Distance (km) Brightness Sun altitude
Rises 06:22:03 0° 246° (WSW) 3,618 7.3 13.7°
Reaches altitude 10° 06:25:57 10° 223° (SW) 2,719 6.9 14.7°
Maximum altitude 06:29:34 15° 189° (S) 2,415 6.9 15.6°
Drops below altitude 10° 06:33:18 10° 156° (SSE) 2,827 7.6 16.5°
Sets 06:37:31 0° 133° (SE) 3,847 8.6 17.5°
